Weather History for KSAA - January, 2014

Change the Weather History Date:

Sunday, January 19, 2014

  Actual Average Record
Temperature  
Mean Temperature 32 °F -  
Max Temperature 44 °F 34 °F 44 °F (2014)
Min Temperature 19 °F 12 °F 19 °F (2014)
Degree Days  
Heating Degree Days 34    
Moisture  
Dew Point 15 °F    
Average Humidity 50    
Maximum Humidity 80    
Minimum Humidity 31    
Precipitation  
Precipitation 0.00 in - - ()
Sea Level Pressure  
Sea Level Pressure 30.18 in    
Wind  
Wind Speed 11 mph (SSW)    
Max Wind Speed 29 mph    
Max Gust Speed 38 mph    
Visibility 10 miles    
Events      
Averages and records for this station are not official NWS values.
T = Trace of Precipitation, MM = Missing Value Source: NWS Daily Summary

Daily Weather History Graph

Daily Weather History Graph

Search for Another Location

Airport or City:

Trip Planner

Search our weather history database for the weather conditions in past years. The results will help you decide how hot, cold, wet, or windy it might be!

Date:

Astronomy

Jan. 19, 2014 Rise Set
Actual Time 7:29 AM MST 5:07 PM MST
Civil Twilight 6:58 AM MST 5:37 PM MST
Nautical Twilight 6:25 AM MST 6:11 PM MST
Astronomical Twilight 5:52 AM MST 6:44 PM MST
Moon 8:51 PM MST (1/19) 8:57 AM MST (1/19)
Length of Visible Light 10h 38m
Length of Day
9h 38m
Waning Gibbous, 89% of the Moon is Illuminated
Jan 19
Waning Gibbous
Jan 23
Last Quarter
Jan 30
New
Feb 6
First Quarter
Feb 14
Full

Hourly Weather History & Observations

Time (MST) Temp. Windchill Dew Point Humidity Pressure Visibility Wind Dir Wind Speed Gust Speed Precip Events Conditions
12:16 AM 26.6 °F 21.2 °F 15.8 °F 64% 30.26 in 10.0 mi SE 4.6 mph - N/A   Clear
12:35 AM 24.8 °F 15.3 °F 14.0 °F 64% 30.26 in 10.0 mi SSE 9.2 mph - N/A   Clear
12:55 AM 23.0 °F 18.4 °F 14.0 °F 68% 30.25 in 10.0 mi ESE 3.5 mph - N/A   Clear
1:15 AM 23.0 °F 13.1 °F 15.8 °F 74% 30.25 in 10.0 mi SSE 9.2 mph - N/A   Clear
1:35 AM 24.8 °F 14.6 °F 15.8 °F 69% 30.24 in 10.0 mi South 10.4 mph - N/A   Clear
1:55 AM 24.8 °F 15.3 °F 15.8 °F 69% 30.24 in 10.0 mi South 9.2 mph - N/A   Clear
2:15 AM 26.6 °F 16.2 °F 15.8 °F 64% 30.24 in 10.0 mi SSE 11.5 mph - N/A   Clear
2:35 AM 26.6 °F 17.5 °F 14.0 °F 59% 30.24 in 10.0 mi South 9.2 mph - N/A   Clear
2:55 AM 23.0 °F 18.4 °F 14.0 °F 68% 30.25 in 10.0 mi SE 3.5 mph - N/A   Clear
3:15 AM 21.2 °F 12.6 °F 14.0 °F 74% 30.25 in 10.0 mi East 6.9 mph - N/A   Clear
3:35 AM 21.2 °F 13.6 °F 14.0 °F 74% 30.23 in 10.0 mi SSE 5.8 mph - N/A   Clear
3:55 AM 23.0 °F - 14.0 °F 68% 30.24 in 10.0 mi Calm Calm - N/A   Clear
4:15 AM 19.4 °F 14.3 °F 14.0 °F 80% 30.23 in 10.0 mi SSE 3.5 mph - N/A   Clear
4:35 AM 21.2 °F 11.7 °F 14.0 °F 74% 30.23 in 10.0 mi SE 8.1 mph - N/A   Clear
4:55 AM 21.2 °F 8.3 °F 14.0 °F 74% 30.22 in 10.0 mi SSE 13.8 mph - N/A   Clear
5:15 AM 24.8 °F 11.9 °F 14.0 °F 64% 30.21 in 10.0 mi SSE 16.1 mph - N/A   Clear
5:35 AM 26.6 °F 14.3 °F 14.0 °F 59% 30.21 in 10.0 mi SE 16.1 mph - N/A   Clear
5:55 AM 26.6 °F 15.7 °F 14.0 °F 59% 30.20 in 10.0 mi South 12.7 mph 17.3 mph N/A   Clear
6:15 AM 23.0 °F 17.0 °F 14.0 °F 68% 30.22 in 10.0 mi SSE 4.6 mph - N/A   Clear
6:35 AM 23.0 °F - 14.0 °F 68% 30.22 in 10.0 mi Calm Calm - N/A   Clear
6:55 AM 21.2 °F - 12.2 °F 68% 30.23 in 10.0 mi Calm Calm - N/A   Clear
7:15 AM 21.2 °F 13.6 °F 12.2 °F 68% 30.23 in 10.0 mi ESE 5.8 mph - N/A   Clear
7:35 AM 26.6 °F 14.3 °F 14.0 °F 59% 30.23 in 10.0 mi SSE 16.1 mph - N/A   Clear
7:55 AM 28.4 °F 17.5 °F 14.0 °F 55% 30.23 in 10.0 mi South 13.8 mph 19.6 mph N/A   Clear
8:15 AM 26.6 °F 16.8 °F 14.0 °F 59% 30.23 in 10.0 mi South 10.4 mph 17.3 mph N/A   Clear
8:35 AM 28.4 °F 21.2 °F 15.8 °F 59% 30.24 in 10.0 mi South 6.9 mph - N/A   Clear
8:56 AM 28.4 °F 18.0 °F 15.8 °F 59% 30.23 in 10.0 mi SSE 12.7 mph - N/A   Clear
9:15 AM 30.2 °F 21.3 °F 17.6 °F 60% 30.23 in 10.0 mi SE 10.4 mph - N/A   Clear
9:35 AM 32.0 °F 24.2 °F 17.6 °F 55% 30.23 in 10.0 mi SSE 9.2 mph - N/A   Clear
9:55 AM 33.8 °F 27.0 °F 19.4 °F 56% 30.23 in 10.0 mi SSE 8.1 mph - N/A   Clear
10:15 AM 33.8 °F 24.3 °F 19.4 °F 56% 30.23 in 10.0 mi SE 13.8 mph - N/A   Clear
10:35 AM 35.6 °F 27.5 °F 19.4 °F 52% 30.23 in 10.0 mi SE 11.5 mph - N/A   Clear
10:55 AM 37.4 °F 28.9 °F 19.4 °F 48% 30.23 in 10.0 mi SE 13.8 mph 19.6 mph N/A   Clear
11:15 AM 39.2 °F 33.6 °F 21.2 °F 49% 30.22 in 10.0 mi ESE 8.1 mph - N/A   Clear
11:35 AM 42.8 °F 37.5 °F 19.4 °F 39% 30.21 in 10.0 mi SSE 9.2 mph 16.1 mph N/A   Clear
11:55 AM 44.6 °F 38.4 °F 17.6 °F 34% 30.20 in 10.0 mi SSW 12.7 mph 16.1 mph N/A   Clear
12:15 PM 44.6 °F 37.8 °F 17.6 °F 34% 30.20 in 10.0 mi SW 15.0 mph 23.0 mph N/A   Clear
12:35 PM 44.6 °F 37.4 °F 17.6 °F 34% 30.18 in 10.0 mi WSW 16.1 mph 25.3 mph N/A   Clear
12:55 PM 44.6 °F 37.2 °F 17.6 °F 34% 30.17 in 10.0 mi WSW 17.3 mph 25.3 mph N/A   Clear
1:15 PM 42.8 °F 35.1 °F 14.0 °F 31% 30.16 in 10.0 mi SW 16.1 mph 31.1 mph N/A   Clear
1:35 PM 42.8 °F 33.5 °F 15.8 °F 34% 30.14 in 10.0 mi WSW 23.0 mph 33.4 mph N/A   Clear
1:55 PM 44.6 °F 35.5 °F 15.8 °F 31% 30.13 in 10.0 mi WSW 25.3 mph 31.1 mph N/A   Clear
2:15 PM 42.8 °F 32.9 °F 14.0 °F 31% 30.12 in 10.0 mi WSW 26.5 mph 33.4 mph N/A   Clear
2:35 PM 42.8 °F 32.5 °F 14.0 °F 31% 30.12 in 10.0 mi WSW 28.8 mph 38.0 mph N/A   Clear
2:55 PM 42.8 °F 32.7 °F 14.0 °F 31% 30.12 in 10.0 mi WSW 27.6 mph 35.7 mph N/A   Clear
3:15 PM 42.8 °F 33.5 °F 15.8 °F 34% 30.12 in 10.0 mi WSW 23.0 mph 33.4 mph N/A   Clear
3:35 PM 42.8 °F 33.5 °F 14.0 °F 31% 30.12 in 10.0 mi WSW 23.0 mph 28.8 mph N/A   Clear
3:55 PM 41.0 °F 31.9 °F 14.0 °F 33% 30.13 in 10.0 mi WSW 19.6 mph 31.1 mph N/A   Clear
4:15 PM 41.0 °F 32.5 °F 14.0 °F 33% 30.13 in 10.0 mi WSW 17.3 mph 23.0 mph N/A   Clear
4:35 PM 41.0 °F 32.2 °F 12.2 °F 31% 30.13 in 10.0 mi WSW 18.4 mph 25.3 mph N/A   Clear
4:55 PM 37.4 °F 27.8 °F 12.2 °F 36% 30.13 in 10.0 mi WSW 17.3 mph - N/A   Clear
5:15 PM 37.4 °F 26.9 °F 12.2 °F 36% 30.13 in 10.0 mi WSW 20.7 mph 24.2 mph N/A   Clear
5:36 PM 33.8 °F 25.3 °F 14.0 °F 44% 30.13 in 10.0 mi SW 11.5 mph - N/A   Clear
5:55 PM 35.6 °F 28.6 °F 14.0 °F 41% 30.13 in 10.0 mi SW 9.2 mph - N/A   Clear
6:15 PM 33.8 °F 27.7 °F 14.0 °F 44% 30.12 in 10.0 mi SW 6.9 mph - N/A   Clear
6:35 PM 33.8 °F 24.3 °F 14.0 °F 44% 30.12 in 10.0 mi WSW 13.8 mph 21.9 mph N/A   Clear
6:55 PM 35.6 °F 24.5 °F 14.0 °F 41% 30.11 in 10.0 mi SW 20.7 mph - N/A   Clear
7:15 PM 35.6 °F 24.2 °F 12.2 °F 38% 30.11 in 10.0 mi SW 21.9 mph 33.4 mph N/A   Clear
7:35 PM 35.6 °F 25.9 °F 14.0 °F 41% 30.12 in 10.0 mi SW 16.1 mph - N/A   Clear
7:55 PM 33.8 °F 23.5 °F 14.0 °F 44% 30.11 in 10.0 mi SW 16.1 mph - N/A   Clear
8:15 PM 33.8 °F 24.8 °F 15.8 °F 48% 30.10 in 10.0 mi SW 12.7 mph - N/A   Clear
8:35 PM 35.6 °F 25.5 °F 12.2 °F 38% 30.09 in 10.0 mi WSW 17.3 mph 26.5 mph N/A   Clear
8:55 PM 35.6 °F 24.2 °F 14.0 °F 41% 30.09 in 10.0 mi WSW 21.9 mph 26.5 mph N/A   Clear
9:15 PM 35.6 °F 24.5 °F 12.2 °F 38% 30.09 in 10.0 mi WSW 20.7 mph 28.8 mph N/A   Clear
9:35 PM 35.6 °F 24.0 °F 12.2 °F 38% 30.08 in 10.0 mi SW 23.0 mph 29.9 mph N/A   Clear
9:55 PM 35.6 °F 24.2 °F 12.2 °F 38% 30.09 in 10.0 mi SW 21.9 mph 32.2 mph N/A   Clear
10:15 PM 33.8 °F 23.5 °F 12.2 °F 41% 30.12 in 10.0 mi WSW 16.1 mph 19.6 mph N/A   Clear
10:37 PM 33.8 °F - 12.2 °F 41% 30.15 in 10.0 mi Calm Calm - N/A   Clear
10:55 PM 32.0 °F 28.7 °F 14.0 °F 48% 30.15 in 10.0 mi ENE 3.5 mph - N/A   Clear
11:15 PM 30.2 °F 21.3 °F 14.0 °F 51% 30.14 in 10.0 mi WSW 10.4 mph - N/A   Clear
11:35 PM 32.0 °F 23.6 °F 14.0 °F 48% 30.14 in 10.0 mi West 10.4 mph - N/A   Clear
11:55 PM 32.0 °F 22.1 °F 14.0 °F 48% 30.14 in 10.0 mi WSW 13.8 mph - N/A   Clear